This demonstration page uses our WeatherBlox Daily Observations layout. Learn more.

Left ArrowRight Arrow

38.89511, -77.03637

Hourly Observations for January 21, 2019

Temp ( °F °C ) Dew Point ( °F °C ) Humidity (%) Winds ( mph kmh ) Pressure ( in mb ) Visibility ( mi km ) Precip ( " mm )
12:52 am 00:52 Mostly Clear 18 -7.8 -3 -19.4 39 39 NW 22 35 30.09 1019 10 16 0.00 0.00
1:52 am 01:52 Mostly Clear 17 -8.3 -4 -20 39 39 NW 18 30 30.11 1020 10 16 0.00 0.00
2:52 am 02:52 Mostly Clear 16 -8.9 -5 -20.6 38 38 NW 23 37 30.12 1020 10 16 0.00 0.00
3:52 am 03:52 Mostly Clear 16 -8.9 -5 -20.6 38 38 NNW 21 33 30.14 1021 10 16 0.00 0.00
4:52 am 04:52 Mostly Clear 15 -9.4 -4 -20 42 42 NW 16 26 30.17 1022 10 16 0.00 0.00
5:52 am 05:52 Partly Cloudy 15 -9.4 -1 -18.3 49 49 WNW 17 28 30.19 1022 10 16 0.00 0.00
6:52 am 06:52 Partly Cloudy 15 -9.4 -4 -20 42 42 WNW 26 43 30.22 1023 10 16 0.00 0.00
7:52 am 07:52 Cloudy 15 -9.4 -4 -20 42 42 WNW 25 41 30.25 1024 10 16 0.00 0.00
8:52 am 08:52 Mostly Sunny 16 -8.9 -5 -20.6 38 38 WNW 15 24 30.27 1025 10 16 0.00 0.00
9:52 am 09:52 Mostly Sunny 18 -7.8 -5 -20.6 35 35 NNW 22 35 30.32 1027 10 16 0.00 0.00
10:52 am 10:52 Mostly Sunny 19 -7.2 -6 -21.1 32 32 NW 23 37 30.35 1028 10 16 0.00 0.00
11:52 am 11:52 Sunny 20 -6.7 -6 -21.1 31 31 NW 25 41 30.34 1028 10 16 0.00 0.00
12:52 pm 12:52 Sunny 22 -5.6 -4 -20 31 31 NNW 28 44 30.34 1028 10 16 0.00 0.00
1:52 pm 13:52 Sunny 24 -4.4 -4 -20 29 29 NNW 22 35 30.35 1028 10 16 0.00 0.00
2:52 pm 14:52 Sunny 23 -5 -4 -20 30 30 NW 20 31 30.37 1028 10 16 0.00 0.00
3:52 pm 15:52 Sunny 23 -5 -4 -20 30 30 NW 21 33 30.39 1029 10 16 0.00 0.00
4:52 pm 16:52 Sunny 23 -5 -4 -20 30 30 NW 18 30 30.42 1030 10 16 0.00 0.00
5:52 pm 17:52 Clear 21 -6.1 -3 -19.4 34 34 WNW 16 26 30.46 1032 10 16 0.00 0.00
6:52 pm 18:52 Clear 21 -6.1 -3 -19.4 34 34 WNW 14 22 30.50 1033 10 16 0.00 0.00
7:52 pm 19:52 Clear 20 -6.7 -2 -18.9 38 38 WNW 14 22 30.54 1034 10 16 0.00 0.00
8:52 pm 20:52 Clear 19 -7.2 -1 -18.3 41 41 NW 8 13 30.56 1035 10 16 0.00 0.00
9:52 pm 21:52 Clear 19 -7.2 0 -17.8 43 43 NW 13 20 30.58 1035 10 16 0.00 0.00
10:52 pm 22:52 Clear 18 -7.8 0 -17.8 45 45 NW 13 20 30.60 1036 10 16 0.00 0.00
11:52 pm 23:52 Clear 18 -7.8 1 -17.2 47 47 NW 9 15 30.61 1037 10 16 0.00 0.00

Powered by AerisWeather